weather.gov     
National Weather Service

Terminal Aerodrome Forecast
NWS Homepage
This page is being discontinued on March 12, 2014.
The same data is available at this site. Please update your bookmarks.
Thank you, and we apologize for the inconvenience.
Please send an email to SR-SRH.Webmaster@noaa.gov with any concerns.


Current Version
Previous Version:    01  02  03  04  05  06  07  08  09  10  11  12  13  14  15  16  17  18  19  20  21  22  23  24  25  26  27  28  29  30  
   31  32  
[Printable]
014
FTUS44 KOHX 311800 AAA
TAFCKV
TAF AMD
KCKV 311838Z 3119/0118 33017G27KT P6SM SCT015 BKN025 OVC035
      TEMPO 3119/3122 -SHRA BKN015
     FM312200 33016G26KT P6SM OVC040
     FM010000 32013G26KT P6SM BKN050
     FM011100 34013KT P6SM SCT050=


U.S. Dept. of Commerce
NOAA National Weather Service
1325 East West Highway
Silver Spring, MD 20910
E-mail: w-nws.webmaster@noaa.gov
Page last modified: May 16, 2007
NATIONAL WEATHER SERVICE: for Safety, for Work, for Fun - FOR LIFE